Weather History for Salinas, CA

Change the Weather History Date:

Thursday, March 7, 2013

  Actual Average Record
Temperature  
Mean Temperature 51 °F 54 °F  
Max Temperature 60 °F 64 °F 86 °F (1953)
Min Temperature 41 °F 45 °F 31 °F (1971)
Degree Days  
Heating Degree Days 14 11  
Month to date heating degree days 68 77  
Since 1 July heating degree days 1823 1891  
Cooling Degree Days 0 0  
Month to date cooling degree days 0 0  
Year to date cooling degree days 0 0  
Moisture  
Dew Point 42 °F    
Average Humidity 68    
Maximum Humidity 93    
Minimum Humidity 43    
Precipitation  
Precipitation 0.18 in 0.08 in 1.30 in (1975)
Month to date precipitation 0.29 0.58  
Year to date precipitation 1.89 5.67  
Since 1 July precipitation 8.53 9.78  
Sea Level Pressure  
Sea Level Pressure 29.94 in    
Wind  
Wind Speed 7 mph (ENE)    
Max Wind Speed 20 mph    
Max Gust Speed 23 mph    
Visibility 9 miles    
Events Rain    
T = Trace of Precipitation, MM = Missing Value Source: NWS Daily Summary

Daily Weather History Graph

Daily Weather History Graph

Search for Another Location

Airport:

Trip Planner

Search our weather history database for the weather conditions in past years. The results will help you decide how hot, cold, wet, or windy it might be!

Date:

Astronomy

Mar. 07, 2013 Rise Set
Actual Time 6:28 AM PST 6:06 PM PST
Civil Twilight 6:02 AM PST 6:32 PM PST
Nautical Twilight 5:32 AM PST 7:02 PM PST
Astronomical Twilight 5:02 AM PST 7:32 PM PST
Moon 3:26 AM PST (3/7) 2:05 PM PST (3/7)
Length of Visible Light 12h 30m
Length of Day
11h 38m
Waning Crescent, 19% of the Moon is Illuminated
Mar 7
Waning Crescent
Mar 11
New
Mar 19
First Quarter
Mar 27
Full
Apr 2
Last Quarter

Hourly Weather History & Observations

Time (PST) Temp. Windchill Dew Point Humidity Pressure Visibility Wind Dir Wind Speed Gust Speed Precip Events Conditions
12:53 AM 44.1 °F - 37.9 °F 79% 30.04 in 10.0 mi Calm Calm - N/A   Clear
1:53 AM 42.1 °F 40.2 °F 37.9 °F 85% 30.04 in 10.0 mi SE 3.5 mph - N/A   Clear
2:53 AM 41.0 °F - 39.0 °F 93% 30.02 in 10.0 mi Calm Calm - N/A   Clear
3:53 AM 42.1 °F - 39.0 °F 89% 30.01 in 10.0 mi Calm Calm - N/A   Clear
4:53 AM 42.1 °F 37.7 °F 37.9 °F 85% 30.01 in 10.0 mi SE 6.9 mph - N/A   Clear
5:53 AM 43.0 °F 37.2 °F 39.0 °F 86% 29.99 in 10.0 mi East 10.4 mph - N/A   Clear
6:53 AM 43.0 °F 36.8 °F 39.0 °F 86% 29.99 in 10.0 mi ESE 11.5 mph - N/A   Clear
7:53 AM 45.0 °F 38.9 °F 39.9 °F 82% 30.00 in 10.0 mi ESE 12.7 mph - N/A   Clear
8:53 AM 46.9 °F - 41.0 °F 80% 30.00 in 10.0 mi ESE 11.5 mph - N/A   Clear
9:53 AM 51.1 °F - 42.1 °F 71% 29.99 in 10.0 mi ESE 9.2 mph - N/A   Clear
10:53 AM 55.0 °F - 41.0 °F 59% 29.98 in 10.0 mi SE 8.1 mph - N/A   Clear
11:53 AM 57.0 °F - 37.0 °F 47% 29.96 in 10.0 mi Calm Calm - N/A   Clear
12:53 PM 57.9 °F - 36.0 °F 44% 29.93 in 10.0 mi ESE 5.8 mph - N/A   Clear
1:53 PM 57.9 °F - 37.0 °F 46% 29.89 in 10.0 mi Calm Calm - N/A   Mostly Cloudy
2:53 PM 55.0 °F - 39.0 °F 55% 29.89 in 10.0 mi West 12.7 mph 19.6 mph N/A   Overcast
3:53 PM 54.0 °F - 43.0 °F 66% 29.89 in 10.0 mi West 9.2 mph - 0.00 in Rain Light Rain
4:53 PM 53.1 °F - 44.1 °F 71% 29.88 in 10.0 mi WNW 10.4 mph - 0.00 in Rain Light Rain
5:53 PM 52.0 °F - 44.1 °F 74% 29.89 in 10.0 mi WNW 9.2 mph - 0.00 in   Overcast
6:53 PM 48.9 °F - 46.0 °F 90% 29.90 in 9.0 mi NW 5.8 mph - 0.01 in Rain Light Rain
7:10 PM 48.2 °F - 46.4 °F 93% 29.87 in 9.0 mi NW 6.9 mph - 0.00 in Rain Light Rain
7:53 PM 48.9 °F - 46.9 °F 93% 29.90 in 7.0 mi NW 6.9 mph - 0.01 in Rain Light Rain
8:53 PM 48.9 °F - 46.0 °F 90% 29.90 in 9.0 mi NW 5.8 mph - 0.03 in Rain Light Rain
9:33 PM 48.2 °F - 46.4 °F 93% 29.87 in 6.0 mi NW 6.9 mph - 0.04 in Rain Rain
9:53 PM 48.0 °F - 45.0 °F 89% 29.90 in 5.0 mi NNE 4.6 mph - 0.08 in Rain Rain
10:16 PM 48.2 °F - 44.6 °F 87% 29.87 in 7.0 mi Calm Calm - 0.01 in Rain Light Rain
10:32 PM 48.2 °F - 46.4 °F 93% 29.87 in 9.0 mi East 3.5 mph - 0.02 in Rain Light Rain
10:53 PM 48.0 °F - 46.0 °F 93% 29.90 in 8.0 mi East 4.6 mph - 0.03 in Rain Light Rain
11:53 PM 46.9 °F - 42.1 °F 83% 29.89 in 10.0 mi East 6.9 mph - 0.02 in Rain Light Rain